[[{"header":{"parameterUnit":"m.s-1","parameterCategory":1,"la1":30.2991,"la2":30.254,"lo1":-89.0895,"lo2":-89.0444,"dy":0.0017,"dx":0.0017,"nx":28,"ny":28,"refTime":"2024-03-11T03:00:00:Z","depth":0,"parameterNumber":2,"parameterNumberName":"U-component_of_WINDS"},"data":[0,0,0,0,0,0,0,0,0,0,0,0,0,0,0,0,0,0,0,0,0,0,0,0,0,0,0,0,0,0,0,0,0,0,0,0,0,0,0,0,0,0,0,0,0,0,0,0,0,0,0,0,0,0,0,0,0,0,-2.8661,-2.8661,0,-2.8735,-2.8736,-2.8737,-2.8593,-2.8589,-2.8584,-2.8579,-2.8661,-2.8668,-2.8674,0,0,0,0,0,0,0,0,0,0,0,0,0,-2.8398,-2.8403,-2.866,-2.8661,-2.8662,-2.8735,-2.8736,-2.8737,-2.8594,-2.8588,-2.8583,-2.8577,-2.8659,-2.8667,-2.8675,0,0,0,0,0,0,0,0,0,0,0,0,0,-2.8496,-2.8405,-2.866,-2.86,-2.8595,-2.8735,-2.8736,-2.8737,-2.8595,-2.8588,-2.8581,-2.8575,-2.8656,-2.8666,-2.8676,-2.888,0,0,-2.8706,-2.871,0,0,0,0,0,0,0,0,-2.8491,-2.8506,-2.8608,-2.8604,-2.8599,-2.8647,-2.8673,-2.8785,-2.8597,-2.8596,-2.8579,-2.8571,-2.8663,-2.8672,-2.8702,-2.8884,-2.8887,-2.8707,-2.8713,-2.8717,-2.872,0,0,0,0,0,0,0,-2.8484,-2.8502,-2.869,-2.8609,-2.8604,-2.857,-2.8576,-2.8694,-2.8669,-2.8595,-2.8585,-2.8595,-2.8659,-2.8692,-2.8702,-2.8888,-2.8707,-2.8716,-2.8722,-2.8726,-2.9241,-2.9248,0,0,0,0,0,0,-2.8484,-2.8497,-2.8688,-2.8692,-2.8526,-2.858,-2.8587,-2.8639,-2.8667,-2.8664,-2.8601,-2.8588,-2.8679,-2.8691,-2.8705,-2.8946,-2.8717,-2.8727,-2.8732,-2.9233,-2.9243,-2.9251,0,0,0,0,0,0,-2.8479,-2.8503,-2.8685,-2.8592,-2.8613,-2.8592,-2.8652,-2.8645,-2.8677,-2.8671,-2.8666,-2.864,-2.8674,-2.8691,-2.8837,-2.8947,-2.8731,-2.874,-2.9224,-2.9236,-2.9247,-2.9429,0,0,0,0,0,0,-2.8472,-2.8502,-2.8578,-2.8595,-2.8618,-2.8815,-2.8659,-2.8651,-2.8694,-2.8678,-2.8706,-2.8704,-2.867,-2.8823,-2.8847,-2.8956,-2.8748,-2.9214,-2.923,-2.9243,-2.9414,-2.9446,-2.9473,0,0,0,0,0,-2.8463,-2.8628,-2.8583,-2.8607,-2.8713,-2.8822,-2.8835,-2.8791,-2.8704,-2.8781,-2.8777,-2.8703,-2.893,-2.8839,-2.8865,-2.8979,-2.9207,-2.9225,-2.9242,-2.94,-2.9439,-2.9473,0,0,0,0,0,0,-2.8628,-2.8629,-2.8579,-2.8754,-2.8789,-2.8797,-2.8894,-2.8834,-2.8895,-2.8878,-2.8821,-2.8829,-2.8987,-2.8997,-2.8895,-2.9177,-2.9054,-2.9078,-2.9166,-2.9203,-2.9232,-2.9228,-2.8756,0,0,0,0,0,-2.8684,-2.877,-2.8767,-2.8922,-2.8941,-2.8915,-2.8961,-2.8923,-2.8957,-2.8972,-2.8978,-2.9016,-2.9095,-2.9149,-2.9222,-2.9413,-2.9418,-2.9504,-2.9534,-2.9559,-2.9581,-2.9683,-2.9722,-2.9308,-2.9308,-2.9308,0,0,-2.8802,-2.8813,-2.8872,-2.8955,-2.8977,-2.907,-2.8929,-2.9032,-2.91,-2.8988,-2.9126,-2.9132,-2.917,-2.934,-2.9415,-2.9353,-2.9695,-2.9581,-2.9601,-2.9609,-2.9705,-2.9744,-2.9779,-2.932,-2.9318,-2.9316,0,0,-2.9063,-2.908,-2.921,-2.9235,-2.927,-2.9251,-2.9282,-2.93,-2.9299,-2.9436,-2.9353,-2.9434,-2.9572,-2.9602,-2.9636,-2.9907,-2.9842,-2.9932,-3.009,-3.019,-3.0223,-3.0252,-3.035,-3.0385,-2.9954,-2.9954,-2.9954,0,-2.9206,-2.934,-2.9286,-2.9395,-2.9434,-2.9334,-2.9466,-2.9493,-2.9551,-2.9581,-2.951,-2.9681,-2.9699,-2.9875,-2.9941,-2.9971,-3.0006,-2.9931,-3.0222,-3.0251,-3.0277,-3.0369,-3.0406,-2.9965,-2.9964,-2.9963,-2.9962,0,-2.9515,-2.9609,-2.971,-2.9766,-2.9817,-2.9937,-2.9902,-2.996,-2.9917,-2.9906,-3.0047,-3.0065,-3.0139,-3.0177,-3.0138,-3.0348,-3.0309,-3.0231,-3.0107,-3.0328,-3.0414,-3.0449,-2.9981,-2.9977,-2.9973,-2.9971,0,0,-2.9886,-2.9907,-2.9946,-2.997,-3.0,-3.0072,-3.0188,-3.0259,-3.031,-3.0353,-3.0449,-3.0567,-3.0495,-3.0533,-3.0496,-3.0584,-3.0798,-3.0495,-3.0495,-3.0552,-3.1032,-3.1092,-3.1134,-3.0754,-3.076,-3.0765,-3.1029,0,-3.0146,-3.0344,-3.0297,-3.0493,-3.058,-3.0485,-3.0585,-3.0615,-3.0607,-3.0681,-3.0672,-3.0757,-3.0654,-3.0677,-3.0759,-3.0755,-3.0894,-3.0735,-3.0845,-3.085,-3.0841,-3.1179,-3.1243,-3.1491,-3.1063,-3.1068,-3.1072,0,-3.0478,-3.0531,-3.0736,-3.075,-3.0785,-3.0876,-3.0937,-3.1007,-3.1039,-3.1027,-3.1069,-3.1014,-3.1129,-3.1001,-3.116,-3.1053,-3.1094,-3.1099,-3.1107,-3.1118,-3.0977,-3.1201,-3.1569,-3.1607,-3.1125,-3.1121,-3.1117,0,-3.073,-3.0852,-3.099,-3.1014,-3.1034,-3.11,-3.1112,-3.1136,-3.1182,-3.1235,-3.1264,-3.1331,-3.1368,-3.1422,-3.1386,-3.1296,-3.1552,-3.1421,-3.1547,-3.1548,-3.1607,-3.1604,-3.199,-3.1631,-3.163,-3.163,-3.1629,0,-3.1028,-3.1157,-3.1104,-3.1189,-3.1331,-3.1275,-3.1418,-3.1419,-3.1441,-3.1525,-3.1446,-3.1528,-3.1474,-3.1552,-3.1525,-3.1661,-3.1678,-3.1673,-3.1664,-3.1681,-3.1682,-3.171,-3.1693,-3.1639,-3.1637,-3.1635,-3.1634,0,-3.1335,-3.1304,-3.1448,-3.1454,-3.1459,-3.1563,-3.1569,-3.1649,-3.1633,-3.1741,-3.1763,-3.1741,-3.1827,-3.1796,-3.1889,-3.187,-3.2045,-3.2013,-3.2034,-3.2027,-3.2155,-3.2144,-3.2574,-3.2628,-3.2232,-3.2236,-3.2239,0,-3.1528,-3.1625,-3.1641,-3.169,-3.1707,-3.1789,-3.1834,-3.1783,-3.1833,-3.1876,-3.1951,-3.203,-3.209,-3.2233,-3.2226,-3.2297,-3.2267,-3.2413,-3.2278,-3.2292,-3.2272,-3.2267,-3.2277,-3.2441,-3.2446,-3.2449,-3.2452,0,-3.1875,-3.1854,-3.1921,-3.1984,-3.2039,-3.2086,-3.2126,-3.2172,-3.2122,-3.2183,-3.2269,-3.2316,-3.241,-3.249,-3.2553,-3.2566,-3.2503,-3.2494,-3.2527,-3.2547,-3.2556,-3.2554,-3.211,-3.2485,-3.2482,-3.248,-3.2478,-3.2477,-3.2132,-3.2214,-3.2237,-3.2314,-3.2338,-3.2377,-3.2452,-3.2445,-3.2515,-3.2586,-3.2552,-3.2652,-3.2681,-3.2758,-3.278,-3.2859,-3.2802,-3.285,-3.2863,-3.2876,-3.2893,-3.2541,-3.287,-3.2869,-3.2868,-3.2867,-3.2866,0,-3.2476,-3.2486,-3.2557,-3.2614,-3.2676,-3.2606,-3.2646,-3.2703,-3.2792,-3.2822,-3.2883,-3.2982,-3.3059,-3.3057,-3.3128,-3.3192,-3.3164,-3.3212,-3.3208,-3.3213,-3.2939,-3.2904,-3.3233,-3.3233,-3.3233,-3.3233,-3.3233,-3.3233,-3.2663,-3.2797,-3.2779,-3.2925,-3.2933,-3.3029,-3.3059,-3.3094,-3.3118,-3.3232,-3.3295,-3.3291,-3.3309,-3.3381,-3.3448,-3.3445,-3.3476,-3.3536,-3.3523,-3.3268,-3.3232,-3.3197,-3.3164,-3.3543,-3.3543,-3.379,-3.3793,-3.3794]},{"header":{"parameterUnit":"m.s-1","parameterCategory":1,"la1":30.2991,"la2":30.254,"lo1":-89.0895,"lo2":-89.0444,"dy":0.0017,"dx":0.0017,"nx":28,"ny":28,"refTime":"2024-03-11T03:00:00:Z","depth":0,"parameterNumber":3,"parameterNumberName":"V-component_of_WINDS"},"data":[0,0,0,0,0,0,0,0,0,0,0,0,0,0,0,0,0,0,0,0,0,0,0,0,0,0,0,0,0,0,0,0,0,0,0,0,0,0,0,0,0,0,0,0,0,0,0,0,0,0,0,0,0,0,0,0,0,0,-3.1135,-3.1136,0,-3.1202,-3.1203,-3.1204,-3.1173,-3.1171,-3.117,-3.1168,-3.1234,-3.1237,-3.124,0,0,0,0,0,0,0,0,0,0,0,0,0,-3.0975,-3.0979,-3.1135,-3.1136,-3.1137,-3.1202,-3.1203,-3.1204,-3.1173,-3.1171,-3.1169,-3.1167,-3.1233,-3.1237,-3.1241,0,0,0,0,0,0,0,0,0,0,0,0,0,-3.1044,-3.098,-3.1135,-3.1129,-3.113,-3.1202,-3.1203,-3.1204,-3.1174,-3.1171,-3.1169,-3.1167,-3.1231,-3.1236,-3.1241,-3.1322,0,0,-3.1256,-3.1258,0,0,0,0,0,0,0,0,-3.104,-3.105,-3.1129,-3.113,-3.113,-3.1177,-3.1171,-3.1244,-3.1174,-3.1157,-3.1168,-3.1165,-3.1217,-3.1223,-3.1241,-3.1325,-3.1328,-3.1257,-3.126,-3.1262,-3.1263,0,0,0,0,0,0,0,-3.1035,-3.1047,-3.1161,-3.113,-3.1131,-3.1122,-3.1129,-3.1184,-3.12,-3.1158,-3.1156,-3.1165,-3.1216,-3.1236,-3.1242,-3.1329,-3.1257,-3.1261,-3.1264,-3.1266,-3.148,-3.1482,0,0,0,0,0,0,-3.1031,-3.1043,-3.1159,-3.1163,-3.1078,-3.1127,-3.1135,-3.1164,-3.1199,-3.1202,-3.1167,-3.1163,-3.1229,-3.1236,-3.1244,-3.1339,-3.1262,-3.1266,-3.1269,-3.1477,-3.148,-3.1483,0,0,0,0,0,0,-3.1028,-3.1042,-3.1157,-3.1103,-3.1117,-3.1132,-3.1166,-3.1167,-3.1187,-3.1206,-3.1208,-3.1184,-3.1227,-3.1237,-3.1302,-3.1341,-3.1269,-3.1273,-3.1474,-3.1478,-3.1482,-3.1531,0,0,0,0,0,0,-3.1024,-3.1041,-3.1073,-3.1104,-3.112,-3.1215,-3.1168,-3.117,-3.1196,-3.1191,-3.1223,-3.1226,-3.1226,-3.1295,-3.1307,-3.1347,-3.1277,-3.147,-3.1476,-3.148,-3.1526,-3.1536,-3.1545,0,0,0,0,0,-3.1018,-3.1084,-3.1075,-3.1089,-3.116,-3.1218,-3.1227,-3.1227,-3.1199,-3.123,-3.1242,-3.1225,-3.1335,-3.1302,-3.1316,-3.1357,-3.1468,-3.1474,-3.148,-3.1522,-3.1534,-3.1545,0,0,0,0,0,0,-3.1057,-3.1088,-3.1078,-3.1156,-3.1185,-3.1212,-3.1252,-3.124,-3.1276,-3.1271,-3.1268,-3.1275,-3.1342,-3.1356,-3.1319,-3.1435,-3.1397,-3.1406,-3.1424,-3.1436,-3.1446,-3.144,-3.1281,0,0,0,0,0,-3.1075,-3.112,-3.1144,-3.1211,-3.1226,-3.1237,-3.1262,-3.1259,-3.1288,-3.1299,-3.1316,-3.1344,-3.1384,-3.1411,-3.145,-3.1528,-3.1533,-3.1563,-3.1572,-3.158,-3.1588,-3.1628,-3.1641,-3.1503,-3.1503,-3.1503,0,0,-3.1112,-3.1134,-3.1163,-3.1219,-3.1241,-3.1286,-3.1247,-3.1297,-3.133,-3.1306,-3.1369,-3.1382,-3.1412,-3.1484,-3.1516,-3.1497,-3.1627,-3.1588,-3.1594,-3.1597,-3.1635,-3.1648,-3.166,-3.1507,-3.1507,-3.1506,0,0,-3.1202,-3.1225,-3.1282,-3.1304,-3.1337,-3.1344,-3.1357,-3.1387,-3.1395,-3.1458,-3.1441,-3.1479,-3.155,-3.1571,-3.1592,-3.1688,-3.1673,-3.1701,-3.1751,-3.179,-3.1801,-3.181,-3.1843,-3.1855,-3.1709,-3.1709,-3.1709,0,-3.1243,-3.1312,-3.1312,-3.1363,-3.1388,-3.1369,-3.1426,-3.1447,-3.1491,-3.1507,-3.1486,-3.1573,-3.1592,-3.1668,-3.1691,-3.1709,-3.1722,-3.1697,-3.1799,-3.1809,-3.1818,-3.1849,-3.1861,-3.1712,-3.1712,-3.1711,-3.1711,0,-3.1361,-3.1409,-3.145,-3.1494,-3.1523,-3.1577,-3.1583,-3.1612,-3.1606,-3.1614,-3.1677,-3.17,-3.1742,-3.1759,-3.1755,-3.1834,-3.1821,-3.18,-3.176,-3.1834,-3.1863,-3.1875,-3.1716,-3.1715,-3.1714,-3.1714,0,0,-3.1478,-3.152,-3.1535,-3.1553,-3.1588,-3.1624,-3.1676,-3.1718,-3.1742,-3.1772,-3.1814,-3.1874,-3.1854,-3.1877,-3.1874,-3.1909,-3.1982,-3.1883,-3.1884,-3.1899,-3.2068,-3.2083,-3.2097,-3.1972,-3.1974,-3.1976,-3.2065,0,-3.157,-3.1662,-3.1662,-3.1746,-3.1789,-3.1771,-3.1816,-3.1841,-3.185,-3.1886,-3.1895,-3.1937,-3.1908,-3.1922,-3.1955,-3.1966,-3.2015,-3.196,-3.2009,-3.2011,-3.2001,-3.2112,-3.2129,-3.2211,-3.2076,-3.2078,-3.208,0,-3.1689,-3.1724,-3.1812,-3.1839,-3.1857,-3.1898,-3.1935,-3.197,-3.1998,-3.2001,-3.2026,-3.2018,-3.2068,-3.2028,-3.2097,-3.2059,-3.2079,-3.2087,-3.209,-3.2094,-3.2049,-3.2117,-3.2238,-3.225,-3.2098,-3.2096,-3.2095,0,-3.1764,-3.1833,-3.1894,-3.1911,-3.1944,-3.1972,-3.1987,-3.2012,-3.2036,-3.2068,-3.2084,-3.2121,-3.2141,-3.2169,-3.217,-3.2141,-3.2239,-3.2199,-3.2241,-3.2241,-3.2262,-3.2261,-3.2386,-3.2277,-3.2277,-3.2277,-3.2277,0,-3.1866,-3.192,-3.1928,-3.1965,-3.2025,-3.2024,-3.2082,-3.2095,-3.2117,-3.2155,-3.2142,-3.2177,-3.2177,-3.2213,-3.2214,-3.2269,-3.2279,-3.2282,-3.2281,-3.2282,-3.2282,-3.2295,-3.2288,-3.228,-3.2279,-3.2279,-3.2278,0,-3.1959,-3.1967,-3.2032,-3.2058,-3.2065,-3.2108,-3.2129,-3.2164,-3.2171,-3.2219,-3.2231,-3.2241,-3.2283,-3.2287,-3.2335,-3.2335,-3.2401,-3.2395,-3.2393,-3.2391,-3.2432,-3.2428,-3.257,-3.2587,-3.2468,-3.2469,-3.247,0,-3.2023,-3.2064,-3.2094,-3.2119,-3.2136,-3.2177,-3.2201,-3.2201,-3.2227,-3.2261,-3.2291,-3.2331,-3.2363,-3.243,-3.2441,-3.2477,-3.2471,-3.2518,-3.2476,-3.2475,-3.2469,-3.2466,-3.247,-3.2526,-3.2527,-3.2528,-3.2529,0,-3.2135,-3.2136,-3.2173,-3.2211,-3.2241,-3.2271,-3.2298,-3.2319,-3.2322,-3.2352,-3.2394,-3.2419,-3.2468,-3.2507,-3.2542,-3.2556,-3.2542,-3.2542,-3.2553,-3.2554,-3.2551,-3.2551,-3.2413,-3.2539,-3.2538,-3.2537,-3.2536,-3.2536,-3.2215,-3.225,-3.2276,-3.2317,-3.2338,-3.2363,-3.2397,-3.2408,-3.2444,-3.2484,-3.2482,-3.2528,-3.2552,-3.2598,-3.2614,-3.2649,-3.2633,-3.265,-3.2654,-3.2658,-3.2661,-3.2546,-3.2655,-3.2655,-3.2655,-3.2655,-3.2654,0,-3.2324,-3.234,-3.2378,-3.2417,-3.2449,-3.2434,-3.2463,-3.249,-3.2532,-3.2556,-3.2588,-3.2635,-3.2673,-3.2687,-3.2723,-3.2748,-3.2743,-3.2757,-3.2755,-3.2758,-3.2674,-3.266,-3.2761,-3.2761,-3.2761,-3.2761,-3.2761,-3.2761,-3.2385,-3.2444,-3.2448,-3.2515,-3.253,-3.2576,-3.2594,-3.2617,-3.2636,-3.269,-3.2721,-3.273,-3.275,-3.2787,-3.282,-3.2823,-3.2836,-3.2853,-3.2853,-3.2775,-3.2764,-3.2754,-3.274,-3.2857,-3.2857,-3.2934,-3.2935,-3.2935]}]]